iso_date,epoch_date,Year,Hour,Min,DOY,POS_DOY,Lat,Lon,BP,Ts,Ta,has_bp,has_ts,has_ta,BuoyID,Buoy_Type,Buoy_Owner,Logistics,Hemisphere
2013-08-26T01:04:48Z,1377479088,2013,1,5,238.045,-999.0,75.4998,-158.749,1021.3,0.48,-999.0,yes,yes,no,300234011244950,UPTEMPO,PSC-UPTEMPO,Araon,North
2013-08-26T01:10:33Z,1377479434,2013,1,10,238.049,-999.0,75.4998,-158.749,1021.3,0.64,-999.0,yes,yes,no,300234011244950,UPTEMPO,PSC-UPTEMPO,Araon,North
2013-08-26T01:14:52Z,1377479693,2013,1,15,238.052,-999.0,75.4996,-158.748,1021.3,0.4,-999.0,yes,yes,no,300234011244950,UPTEMPO,PSC-UPTEMPO,Araon,North
2013-08-26T01:20:38Z,1377480038,2013,1,20,238.056,-999.0,75.4992,-158.7494,1021.3,-0.48,-999.0,yes,yes,no,300234011244950,UPTEMPO,PSC-UPTEMPO,Araon,North
2013-08-26T01:24:57Z,1377480298,2013,1,25,238.059,-999.0,75.4992,-158.7484,1021.2,-0.36,-999.0,yes,yes,no,300234011244950,UPTEMPO,PSC-UPTEMPO,Araon,North
2013-08-26T01:29:16Z,1377480557,2013,1,30,238.062,-999.0,75.4992,-158.7478,1021.2,-0.28,-999.0,yes,yes,no,300234011244950,UPTEMPO,PSC-UPTEMPO,Araon,North
2013-08-26T01:35:02Z,1377480902,2013,1,35,238.066,-999.0,75.4994,-158.745,1021.2,-0.2,-999.0,yes,yes,no,300234011244950,UPTEMPO,PSC-UPTEMPO,Araon,North
2013-08-26T01:39:21Z,1377481162,2013,1,40,238.069,-999.0,75.4992,-158.7446,1021.7,-1.36,-999.0,yes,yes,no,300234011244950,UPTEMPO,PSC-UPTEMPO,Araon,North
2013-08-26T01:45:07Z,1377481507,2013,1,45,238.073,-999.0,75.499,-158.7448,1021.7,-1.4,-999.0,yes,yes,no,300234011244950,UPTEMPO,PSC-UPTEMPO,Araon,North
2013-08-26T01:49:26Z,1377481766,2013,1,50,238.076,-999.0,75.4988,-158.745,1021.7,-1.4,-999.0,yes,yes,no,300234011244950,UPTEMPO,PSC-UPTEMPO,Araon,North
2013-08-26T01:56:38Z,1377482198,2013,1,56,238.081,-999.0,75.4984,-158.7452,1021.6,-1.4,-999.0,yes,yes,no,300234011244950,UPTEMPO,PSC-UPTEMPO,Araon,North
2013-08-26T03:00:00Z,1377486000,2013,3,0,238.125,-999.0,75.491,-158.752,1021.4,-1.36,-999.0,yes,yes,no,300234011244950,UPTEMPO,PSC-UPTEMPO,Araon,North
2013-08-26T04:00:28Z,1377489629,2013,4,0,238.167,-999.0,75.4854,-158.7694,1021.4,-1.4,-999.0,yes,yes,no,300234011244950,UPTEMPO,PSC-UPTEMPO,Araon,North
2013-08-26T04:59:31Z,1377493171,2013,5,0,238.208,-999.0,75.482,-158.7912,1021.2,-1.4,-999.0,yes,yes,no,300234011244950,UPTEMPO,PSC-UPTEMPO,Araon,North
2013-08-26T06:00:00Z,1377496800,2013,6,0,238.25,-999.0,75.4808,-158.81,1021.5,-1.42,-999.0,yes,yes,no,300234011244950,UPTEMPO,PSC-UPTEMPO,Araon,North
2013-08-26T07:00:28Z,1377500429,2013,7,0,238.292,-999.0,75.4816,-158.8236,1021.6,-1.44,-999.0,yes,yes,no,300234011244950,UPTEMPO,PSC-UPTEMPO,Araon,North
2013-08-26T07:59:31Z,1377503971,2013,8,0,238.333,-999.0,75.4834,-158.828,1021.6,-1.48,-999.0,yes,yes,no,300234011244950,UPTEMPO,PSC-UPTEMPO,Araon,North
2013-08-26T09:00:00Z,1377507600,2013,9,0,238.375,-999.0,75.485,-158.8238,1021.5,-1.44,-999.0,yes,yes,no,300234011244950,UPTEMPO,PSC-UPTEMPO,Araon,North
2013-08-26T10:00:28Z,1377511229,2013,10,0,238.417,-999.0,75.4854,-158.8146,1021.3,-1.44,-999.0,yes,yes,no,300234011244950,UPTEMPO,PSC-UPTEMPO,Araon,North
2013-08-26T10:59:31Z,1377514771,2013,11,0,238.458,-999.0,75.4846,-158.8036,1021.3,-1.44,-999.0,yes,yes,no,300234011244950,UPTEMPO,PSC-UPTEMPO,Araon,North
2013-08-26T12:00:00Z,1377518400,2013,12,0,238.5,-999.0,75.4826,-158.791,1021.3,-1.44,-999.0,yes,yes,no,300234011244950,UPTEMPO,PSC-UPTEMPO,Araon,North
2013-08-26T13:00:28Z,1377522029,2013,13,0,238.542,-999.0,75.4784,-158.7806,1021.1,-1.44,-999.0,yes,yes,no,300234011244950,UPTEMPO,PSC-UPTEMPO,Araon,North
2013-08-26T13:59:31Z,1377525571,2013,14,0,238.583,-999.0,75.4732,-158.7772,1020.9,-1.44,-999.0,yes,yes,no,300234011244950,UPTEMPO,PSC-UPTEMPO,Araon,North
2013-08-26T15:00:00Z,1377529200,2013,15,0,238.625,-999.0,75.467,-158.7788,1020.7,-1.4,-999.0,yes,yes,no,300234011244950,UPTEMPO,PSC-UPTEMPO,Araon,North
2013-08-26T16:00:28Z,1377532829,2013,16,0,238.667,-999.0,75.4612,-158.7872,1020.5,-1.42,-999.0,yes,yes,no,300234011244950,UPTEMPO,PSC-UPTEMPO,Araon,North
2013-08-26T16:59:31Z,1377536371,2013,17,0,238.708,-999.0,75.457,-158.7994,1020.2,-1.4,-999.0,yes,yes,no,300234011244950,UPTEMPO,PSC-UPTEMPO,Araon,North
2013-08-26T18:00:00Z,1377540000,2013,18,0,238.75,-999.0,75.4544,-158.814,1020.1,-1.4,-999.0,yes,yes,no,300234011244950,UPTEMPO,PSC-UPTEMPO,Araon,North
2013-08-26T19:00:28Z,1377543629,2013,19,0,238.792,-999.0,75.4532,-158.8264,1020.0,-1.4,-999.0,yes,yes,no,300234011244950,UPTEMPO,PSC-UPTEMPO,Araon,North
2013-08-26T19:59:31Z,1377547171,2013,20,0,238.833,-999.0,75.4536,-158.8364,1019.9,-1.36,-999.0,yes,yes,no,300234011244950,UPTEMPO,PSC-UPTEMPO,Araon,North
2013-08-26T21:00:00Z,1377550800,2013,21,0,238.875,-999.0,75.4554,-158.8404,1019.5,-1.4,-999.0,yes,yes,no,300234011244950,UPTEMPO,PSC-UPTEMPO,Araon,North
2013-08-26T22:00:28Z,1377554429,2013,22,0,238.917,-999.0,75.4568,-158.8356,1019.5,-1.32,-999.0,yes,yes,no,300234011244950,UPTEMPO,PSC-UPTEMPO,Araon,North
2013-08-26T22:59:31Z,1377557971,2013,23,0,238.958,-999.0,75.4572,-158.8232,1019.1,-1.32,-999.0,yes,yes,no,300234011244950,UPTEMPO,PSC-UPTEMPO,Araon,North
2013-08-27T00:00:00Z,1377561600,2013,0,0,239.0,-999.0,75.4568,-158.808,1018.6,-1.36,-999.0,yes,yes,no,300234011244950,UPTEMPO,PSC-UPTEMPO,Araon,North
2013-08-27T01:00:28Z,1377565229,2013,1,0,239.042,-999.0,75.455,-158.7932,1018.3,-1.36,-999.0,yes,yes,no,300234011244950,UPTEMPO,PSC-UPTEMPO,Araon,North
2013-08-27T01:59:31Z,1377568771,2013,2,0,239.083,-999.0,75.4526,-158.7828,1018.0,-1.4,-999.0,yes,yes,no,300234011244950,UPTEMPO,PSC-UPTEMPO,Araon,North
2013-08-27T03:00:00Z,1377572400,2013,3,0,239.125,-999.0,75.4498,-158.7768,1017.4,-1.4,-999.0,yes,yes,no,300234011244950,UPTEMPO,PSC-UPTEMPO,Araon,North
2013-08-27T04:00:28Z,1377576029,2013,4,0,239.167,-999.0,75.4476,-158.7694,1017.0,-1.32,-999.0,yes,yes,no,300234011244950,UPTEMPO,PSC-UPTEMPO,Araon,North
2013-08-27T04:59:31Z,1377579571,2013,5,0,239.208,-999.0,75.4456,-158.7608,1016.6,-1.32,-999.0,yes,yes,no,300234011244950,UPTEMPO,PSC-UPTEMPO,Araon,North
2013-08-27T06:00:00Z,1377583200,2013,6,0,239.25,-999.0,75.4444,-158.754,1016.2,-1.36,-999.0,yes,yes,no,300234011244950,UPTEMPO,PSC-UPTEMPO,Araon,North
2013-08-27T07:00:28Z,1377586829,2013,7,0,239.292,-999.0,75.4448,-158.7462,1015.7,-1.4,-999.0,yes,yes,no,300234011244950,UPTEMPO,PSC-UPTEMPO,Araon,North
2013-08-27T07:59:31Z,1377590371,2013,8,0,239.333,-999.0,75.446,-158.7352,1015.7,-1.32,-999.0,yes,yes,no,300234011244950,UPTEMPO,PSC-UPTEMPO,Araon,North
2013-08-27T09:00:00Z,1377594000,2013,9,0,239.375,-999.0,75.4478,-158.7196,1015.6,-1.36,-999.0,yes,yes,no,300234011244950,UPTEMPO,PSC-UPTEMPO,Araon,North
2013-08-27T10:00:28Z,1377597629,2013,10,0,239.417,-999.0,75.4496,-158.6996,1015.3,-1.4,-999.0,yes,yes,no,300234011244950,UPTEMPO,PSC-UPTEMPO,Araon,North
2013-08-27T10:59:31Z,1377601171,2013,11,0,239.458,-999.0,75.4504,-158.6764,1015.2,-1.4,-999.0,yes,yes,no,300234011244950,UPTEMPO,PSC-UPTEMPO,Araon,North
2013-08-27T12:00:00Z,1377604800,2013,12,0,239.5,-999.0,75.45,-158.6528,1014.9,-1.4,-999.0,yes,yes,no,300234011244950,UPTEMPO,PSC-UPTEMPO,Araon,North
2013-08-27T13:00:28Z,1377608429,2013,13,0,239.542,-999.0,75.4486,-158.63,1014.7,-1.4,-999.0,yes,yes,no,300234011244950,UPTEMPO,PSC-UPTEMPO,Araon,North
2013-08-27T13:59:31Z,1377611971,2013,14,0,239.583,-999.0,75.4456,-158.612,1014.5,-1.44,-999.0,yes,yes,no,300234011244950,UPTEMPO,PSC-UPTEMPO,Araon,North
2013-08-27T15:00:00Z,1377615600,2013,15,0,239.625,-999.0,75.4418,-158.6022,1014.2,-1.44,-999.0,yes,yes,no,300234011244950,UPTEMPO,PSC-UPTEMPO,Araon,North
2013-08-27T16:00:28Z,1377619229,2013,16,0,239.667,-999.0,75.4386,-158.6,1014.1,-1.44,-999.0,yes,yes,no,300234011244950,UPTEMPO,PSC-UPTEMPO,Araon,North
2013-08-27T16:59:31Z,1377622771,2013,17,0,239.708,-999.0,75.437,-158.6042,1013.8,-1.44,-999.0,yes,yes,no,300234011244950,UPTEMPO,PSC-UPTEMPO,Araon,North
2013-08-27T18:00:00Z,1377626400,2013,18,0,239.75,-999.0,75.4374,-158.6144,1013.8,-1.42,-999.0,yes,yes,no,300234011244950,UPTEMPO,PSC-UPTEMPO,Araon,North
2013-08-27T19:00:28Z,1377630029,2013,19,0,239.792,-999.0,75.4394,-158.6248,1013.7,-1.42,-999.0,yes,yes,no,300234011244950,UPTEMPO,PSC-UPTEMPO,Araon,North
2013-08-27T19:59:31Z,1377633571,2013,20,0,239.833,-999.0,75.4436,-158.6332,1013.6,-1.42,-999.0,yes,yes,no,300234011244950,UPTEMPO,PSC-UPTEMPO,Araon,North
2013-08-27T21:00:00Z,1377637200,2013,21,0,239.875,-999.0,75.4496,-158.6354,1013.7,-1.4,-999.0,yes,yes,no,300234011244950,UPTEMPO,PSC-UPTEMPO,Araon,North
2013-08-27T22:00:28Z,1377640829,2013,22,0,239.917,-999.0,75.4554,-158.6286,1013.8,-1.4,-999.0,yes,yes,no,300234011244950,UPTEMPO,PSC-UPTEMPO,Araon,North
2013-08-27T22:59:31Z,1377644371,2013,23,0,239.958,-999.0,75.4608,-158.6168,1014.0,-1.4,-999.0,yes,yes,no,300234011244950,UPTEMPO,PSC-UPTEMPO,Araon,North
2013-08-28T00:00:00Z,1377648000,2013,0,0,240.0,-999.0,75.465,-158.604,1013.8,-1.4,-999.0,yes,yes,no,300234011244950,UPTEMPO,PSC-UPTEMPO,Araon,North
2013-08-28T01:00:28Z,1377651629,2013,1,0,240.042,-999.0,75.4674,-158.5946,1013.6,-1.42,-999.0,yes,yes,no,300234011244950,UPTEMPO,PSC-UPTEMPO,Araon,North
2013-08-28T01:59:31Z,1377655171,2013,2,0,240.083,-999.0,75.468,-158.5916,1013.6,-1.42,-999.0,yes,yes,no,300234011244950,UPTEMPO,PSC-UPTEMPO,Araon,North
2013-08-28T03:00:00Z,1377658800,2013,3,0,240.125,-999.0,75.4676,-158.5968,1013.5,-1.42,-999.0,yes,yes,no,300234011244950,UPTEMPO,PSC-UPTEMPO,Araon,North
2013-08-28T04:00:28Z,1377662429,2013,4,0,240.167,-999.0,75.468,-158.6168,1013.4,-1.42,-999.0,yes,yes,no,300234011244950,UPTEMPO,PSC-UPTEMPO,Araon,North
2013-08-28T04:59:31Z,1377665971,2013,5,0,240.208,-999.0,75.4708,-158.6436,1013.6,-1.4,-999.0,yes,yes,no,300234011244950,UPTEMPO,PSC-UPTEMPO,Araon,North
2013-08-28T06:00:00Z,1377669600,2013,6,0,240.25,-999.0,75.4758,-158.6712,1013.7,-1.4,-999.0,yes,yes,no,300234011244950,UPTEMPO,PSC-UPTEMPO,Araon,North
2013-08-28T07:00:28Z,1377673229,2013,7,0,240.292,-999.0,75.4818,-158.6942,1013.7,-1.4,-999.0,yes,yes,no,300234011244950,UPTEMPO,PSC-UPTEMPO,Araon,North
2013-08-28T07:59:31Z,1377676771,2013,8,0,240.333,-999.0,75.4886,-158.7178,1013.8,-1.4,-999.0,yes,yes,no,300234011244950,UPTEMPO,PSC-UPTEMPO,Araon,North
2013-08-28T09:00:00Z,1377680400,2013,9,0,240.375,-999.0,75.4954,-158.7376,1013.8,-1.36,-999.0,yes,yes,no,300234011244950,UPTEMPO,PSC-UPTEMPO,Araon,North
2013-08-28T10:00:28Z,1377684029,2013,10,0,240.417,-999.0,75.502,-158.7546,1013.9,-1.36,-999.0,yes,yes,no,300234011244950,UPTEMPO,PSC-UPTEMPO,Araon,North
2013-08-28T10:59:31Z,1377687571,2013,11,0,240.458,-999.0,75.5074,-158.7714,1013.9,-1.4,-999.0,yes,yes,no,300234011244950,UPTEMPO,PSC-UPTEMPO,Araon,North
2013-08-28T12:00:00Z,1377691200,2013,12,0,240.5,-999.0,75.5108,-158.7898,1013.8,-1.4,-999.0,yes,yes,no,300234011244950,UPTEMPO,PSC-UPTEMPO,Araon,North
2013-08-28T13:00:28Z,1377694829,2013,13,0,240.542,-999.0,75.513,-158.8116,1013.9,-1.42,-999.0,yes,yes,no,300234011244950,UPTEMPO,PSC-UPTEMPO,Araon,North
2013-08-28T13:59:31Z,1377698371,2013,14,0,240.583,-999.0,75.5142,-158.8362,1013.8,-1.42,-999.0,yes,yes,no,300234011244950,UPTEMPO,PSC-UPTEMPO,Araon,North
2013-08-28T15:00:00Z,1377702000,2013,15,0,240.625,-999.0,75.515,-158.8662,1013.7,-1.44,-999.0,yes,yes,no,300234011244950,UPTEMPO,PSC-UPTEMPO,Araon,North
2013-08-28T16:00:28Z,1377705629,2013,16,0,240.667,-999.0,75.5156,-158.9038,1013.5,-1.44,-999.0,yes,yes,no,300234011244950,UPTEMPO,PSC-UPTEMPO,Araon,North
2013-08-28T16:59:31Z,1377709171,2013,17,0,240.708,-999.0,75.5166,-158.949,1013.5,-1.52,-999.0,yes,yes,no,300234011244950,UPTEMPO,PSC-UPTEMPO,Araon,North
2013-08-28T18:00:00Z,1377712800,2013,18,0,240.75,-999.0,75.5194,-158.9974,1013.6,-1.44,-999.0,yes,yes,no,300234011244950,UPTEMPO,PSC-UPTEMPO,Araon,North
2013-08-28T19:00:28Z,1377716429,2013,19,0,240.792,-999.0,75.5236,-159.0438,1013.6,-1.52,-999.0,yes,yes,no,300234011244950,UPTEMPO,PSC-UPTEMPO,Araon,North
2013-08-28T19:59:31Z,1377719971,2013,20,0,240.833,-999.0,75.5288,-159.0844,1013.8,-1.52,-999.0,yes,yes,no,300234011244950,UPTEMPO,PSC-UPTEMPO,Araon,North
2013-08-28T21:00:00Z,1377723600,2013,21,0,240.875,-999.0,75.5346,-159.121,1013.9,-1.44,-999.0,yes,yes,no,300234011244950,UPTEMPO,PSC-UPTEMPO,Araon,North
2013-08-28T22:00:28Z,1377727229,2013,22,0,240.917,-999.0,75.5402,-159.1522,1014.1,-1.42,-999.0,yes,yes,no,300234011244950,UPTEMPO,PSC-UPTEMPO,Araon,North
2013-08-28T22:59:31Z,1377730771,2013,23,0,240.958,-999.0,75.5454,-159.1752,1014.1,-1.4,-999.0,yes,yes,no,300234011244950,UPTEMPO,PSC-UPTEMPO,Araon,North
2013-08-29T00:00:00Z,1377734400,2013,0,0,241.0,-999.0,75.5494,-159.1952,1014.1,-1.4,-999.0,yes,yes,no,300234011244950,UPTEMPO,PSC-UPTEMPO,Araon,North
2013-08-29T01:00:28Z,1377738029,2013,1,0,241.042,-999.0,75.5518,-159.2168,1014.0,-1.4,-999.0,yes,yes,no,300234011244950,UPTEMPO,PSC-UPTEMPO,Araon,North
2013-08-29T01:59:31Z,1377741571,2013,2,0,241.083,-999.0,75.5526,-159.2436,1013.9,-1.32,-999.0,yes,yes,no,300234011244950,UPTEMPO,PSC-UPTEMPO,Araon,North
2013-08-29T03:00:00Z,1377745200,2013,3,0,241.125,-999.0,75.553,-159.277,1013.9,-1.4,-999.0,yes,yes,no,300234011244950,UPTEMPO,PSC-UPTEMPO,Araon,North
2013-08-29T04:00:28Z,1377748829,2013,4,0,241.167,-999.0,75.5534,-159.3178,1014.2,-1.32,-999.0,yes,yes,no,300234011244950,UPTEMPO,PSC-UPTEMPO,Araon,North
2013-08-29T04:59:31Z,1377752371,2013,5,0,241.208,-999.0,75.555,-159.3626,1014.2,-1.42,-999.0,yes,yes,no,300234011244950,UPTEMPO,PSC-UPTEMPO,Araon,North
2013-08-29T06:00:00Z,1377756000,2013,6,0,241.25,-999.0,75.5572,-159.4038,1014.4,-1.32,-999.0,yes,yes,no,300234011244950,UPTEMPO,PSC-UPTEMPO,Araon,North
2013-08-29T07:00:28Z,1377759629,2013,7,0,241.292,-999.0,75.5604,-159.4522,1014.5,-1.44,-999.0,yes,yes,no,300234011244950,UPTEMPO,PSC-UPTEMPO,Araon,North
2013-08-29T07:59:31Z,1377763171,2013,8,0,241.333,-999.0,75.565,-159.4952,1014.7,-1.44,-999.0,yes,yes,no,300234011244950,UPTEMPO,PSC-UPTEMPO,Araon,North
2013-08-29T09:00:00Z,1377766800,2013,9,0,241.375,-999.0,75.5704,-159.5302,1014.7,-1.44,-999.0,yes,yes,no,300234011244950,UPTEMPO,PSC-UPTEMPO,Araon,North
2013-08-29T10:00:28Z,1377770429,2013,10,0,241.417,-999.0,75.5752,-159.559,1014.7,-1.44,-999.0,yes,yes,no,300234011244950,UPTEMPO,PSC-UPTEMPO,Araon,North
2013-08-29T10:59:31Z,1377773971,2013,11,0,241.458,-999.0,75.5794,-159.5852,1014.6,-1.44,-999.0,yes,yes,no,300234011244950,UPTEMPO,PSC-UPTEMPO,Araon,North
2013-08-29T12:00:00Z,1377777600,2013,12,0,241.5,-999.0,75.5826,-159.6036,1014.7,-1.44,-999.0,yes,yes,no,300234011244950,UPTEMPO,PSC-UPTEMPO,Araon,North
2013-08-29T13:00:28Z,1377781229,2013,13,0,241.542,-999.0,75.5836,-159.622,1014.3,-1.48,-999.0,yes,yes,no,300234011244950,UPTEMPO,PSC-UPTEMPO,Araon,North
2013-08-29T13:59:31Z,1377784771,2013,14,0,241.583,-999.0,75.5818,-159.6408,1014.3,-1.52,-999.0,yes,yes,no,300234011244950,UPTEMPO,PSC-UPTEMPO,Araon,North
2013-08-29T15:00:00Z,1377788400,2013,15,0,241.625,-999.0,75.579,-159.6664,1014.2,-1.54,-999.0,yes,yes,no,300234011244950,UPTEMPO,PSC-UPTEMPO,Araon,North
2013-08-29T16:00:28Z,1377792029,2013,16,0,241.667,-999.0,75.5772,-159.6986,1014.1,-1.52,-999.0,yes,yes,no,300234011244950,UPTEMPO,PSC-UPTEMPO,Araon,North
2013-08-29T16:59:31Z,1377795571,2013,17,0,241.708,-999.0,75.5774,-159.7326,1013.8,-1.52,-999.0,yes,yes,no,300234011244950,UPTEMPO,PSC-UPTEMPO,Araon,North
2013-08-29T18:00:00Z,1377799200,2013,18,0,241.75,-999.0,75.5782,-159.7708,1013.9,-1.52,-999.0,yes,yes,no,300234011244950,UPTEMPO,PSC-UPTEMPO,Araon,North
2013-08-29T19:00:28Z,1377802829,2013,19,0,241.792,-999.0,75.581,-159.8072,1014.0,-1.52,-999.0,yes,yes,no,300234011244950,UPTEMPO,PSC-UPTEMPO,Araon,North
2013-08-29T19:59:31Z,1377806371,2013,20,0,241.833,-999.0,75.5848,-159.8386,1014.0,-1.48,-999.0,yes,yes,no,300234011244950,UPTEMPO,PSC-UPTEMPO,Araon,North
2013-08-29T21:00:00Z,1377810000,2013,21,0,241.875,-999.0,75.589,-159.8628,1013.9,-1.48,-999.0,yes,yes,no,300234011244950,UPTEMPO,PSC-UPTEMPO,Araon,North
2013-08-29T22:00:28Z,1377813629,2013,22,0,241.917,-999.0,75.5928,-159.8832,1013.7,-1.52,-999.0,yes,yes,no,300234011244950,UPTEMPO,PSC-UPTEMPO,Araon,North
2013-08-29T22:59:31Z,1377817171,2013,23,0,241.958,-999.0,75.5954,-159.9006,1013.7,-1.52,-999.0,yes,yes,no,300234011244950,UPTEMPO,PSC-UPTEMPO,Araon,North
2013-08-30T00:00:00Z,1377820800,2013,0,0,242.0,-999.0,75.5974,-159.9152,1013.7,-1.48,-999.0,yes,yes,no,300234011244950,UPTEMPO,PSC-UPTEMPO,Araon,North
2013-08-30T01:00:28Z,1377824429,2013,1,0,242.042,-999.0,75.598,-159.9316,1013.6,-1.52,-999.0,yes,yes,no,300234011244950,UPTEMPO,PSC-UPTEMPO,Araon,North
2013-08-30T01:59:31Z,1377827971,2013,2,0,242.083,-999.0,75.5984,-159.9528,1013.7,-1.52,-999.0,yes,yes,no,300234011244950,UPTEMPO,PSC-UPTEMPO,Araon,North
2013-08-30T03:00:00Z,1377831600,2013,3,0,242.125,-999.0,75.5978,-159.9798,1013.6,-1.52,-999.0,yes,yes,no,300234011244950,UPTEMPO,PSC-UPTEMPO,Araon,North
2013-08-30T04:00:28Z,1377835229,2013,4,0,242.167,-999.0,75.5984,-160.012,1013.5,-1.52,-999.0,yes,yes,no,300234011244950,UPTEMPO,PSC-UPTEMPO,Araon,North
2013-08-30T04:59:31Z,1377838771,2013,5,0,242.208,-999.0,75.5998,-160.0458,1013.7,-1.52,-999.0,yes,yes,no,300234011244950,UPTEMPO,PSC-UPTEMPO,Araon,North
2013-08-30T06:00:00Z,1377842400,2013,6,0,242.25,-999.0,75.6028,-160.0792,1013.5,-1.52,-999.0,yes,yes,no,300234011244950,UPTEMPO,PSC-UPTEMPO,Araon,North
2013-08-30T07:00:28Z,1377846029,2013,7,0,242.292,-999.0,75.6072,-160.111,1013.6,-1.52,-999.0,yes,yes,no,300234011244950,UPTEMPO,PSC-UPTEMPO,Araon,North
2013-08-30T07:59:31Z,1377849571,2013,8,0,242.333,-999.0,75.612,-160.139,1013.6,-1.52,-999.0,yes,yes,no,300234011244950,UPTEMPO,PSC-UPTEMPO,Araon,North
2013-08-30T09:00:00Z,1377853200,2013,9,0,242.375,-999.0,75.6168,-160.1634,1013.6,-1.52,-999.0,yes,yes,no,300234011244950,UPTEMPO,PSC-UPTEMPO,Araon,North
2013-08-30T10:00:28Z,1377856829,2013,10,0,242.417,-999.0,75.6212,-160.1836,1013.5,-1.52,-999.0,yes,yes,no,300234011244950,UPTEMPO,PSC-UPTEMPO,Araon,North
2013-08-30T10:59:31Z,1377860371,2013,11,0,242.458,-999.0,75.6246,-160.2008,1013.4,-1.52,-999.0,yes,yes,no,300234011244950,UPTEMPO,PSC-UPTEMPO,Araon,North
2013-08-30T12:00:00Z,1377864000,2013,12,0,242.5,-999.0,75.6266,-160.216,1013.4,-1.52,-999.0,yes,yes,no,300234011244950,UPTEMPO,PSC-UPTEMPO,Araon,North
2013-08-30T13:00:28Z,1377867629,2013,13,0,242.542,-999.0,75.6272,-160.2324,1013.4,-1.52,-999.0,yes,yes,no,300234011244950,UPTEMPO,PSC-UPTEMPO,Araon,North
2013-08-30T13:59:31Z,1377871171,2013,14,0,242.583,-999.0,75.627,-160.2522,1013.5,-1.48,-999.0,yes,yes,no,300234011244950,UPTEMPO,PSC-UPTEMPO,Araon,North
2013-08-30T15:00:00Z,1377874800,2013,15,0,242.625,-999.0,75.6266,-160.2752,1013.6,-1.52,-999.0,yes,yes,no,300234011244950,UPTEMPO,PSC-UPTEMPO,Araon,North
2013-08-30T16:00:28Z,1377878429,2013,16,0,242.667,-999.0,75.626,-160.2996,1013.7,-1.48,-999.0,yes,yes,no,300234011244950,UPTEMPO,PSC-UPTEMPO,Araon,North
2013-08-30T16:59:31Z,1377881971,2013,17,0,242.708,-999.0,75.6252,-160.3256,1013.6,-1.44,-999.0,yes,yes,no,300234011244950,UPTEMPO,PSC-UPTEMPO,Araon,North
2013-08-30T18:00:00Z,1377885600,2013,18,0,242.75,-999.0,75.6248,-160.3534,1013.7,-1.48,-999.0,yes,yes,no,300234011244950,UPTEMPO,PSC-UPTEMPO,Araon,North
2013-08-30T19:00:28Z,1377889229,2013,19,0,242.792,-999.0,75.6248,-160.3846,1013.5,-1.48,-999.0,yes,yes,no,300234011244950,UPTEMPO,PSC-UPTEMPO,Araon,North
2013-08-30T19:59:31Z,1377892771,2013,20,0,242.833,-999.0,75.6252,-160.4162,1013.7,-1.48,-999.0,yes,yes,no,300234011244950,UPTEMPO,PSC-UPTEMPO,Araon,North
2013-08-30T21:00:00Z,1377896400,2013,21,0,242.875,-999.0,75.6268,-160.4446,1013.5,-1.44,-999.0,yes,yes,no,300234011244950,UPTEMPO,PSC-UPTEMPO,Araon,North
2013-08-30T22:00:28Z,1377900029,2013,22,0,242.917,-999.0,75.6284,-160.4702,1013.5,-1.44,-999.0,yes,yes,no,300234011244950,UPTEMPO,PSC-UPTEMPO,Araon,North
2013-08-30T22:59:31Z,1377903571,2013,23,0,242.958,-999.0,75.6304,-160.4916,1013.5,-1.44,-999.0,yes,yes,no,300234011244950,UPTEMPO,PSC-UPTEMPO,Araon,North
2013-08-31T00:00:00Z,1377907200,2013,0,0,243.0,-999.0,75.6312,-160.5082,1013.5,-1.42,-999.0,yes,yes,no,300234011244950,UPTEMPO,PSC-UPTEMPO,Araon,North
2013-08-31T01:00:28Z,1377910829,2013,1,0,243.042,-999.0,75.6306,-160.5206,1013.4,-1.44,-999.0,yes,yes,no,300234011244950,UPTEMPO,PSC-UPTEMPO,Araon,North
2013-08-31T01:59:31Z,1377914371,2013,2,0,243.083,-999.0,75.6274,-160.531,1013.4,-1.44,-999.0,yes,yes,no,300234011244950,UPTEMPO,PSC-UPTEMPO,Araon,North
2013-08-31T03:00:00Z,1377918000,2013,3,0,243.125,-999.0,75.6222,-160.544,1013.2,-1.44,-999.0,yes,yes,no,300234011244950,UPTEMPO,PSC-UPTEMPO,Araon,North
2013-08-31T04:00:28Z,1377921629,2013,4,0,243.167,-999.0,75.6152,-160.5656,1013.0,-1.44,-999.0,yes,yes,no,300234011244950,UPTEMPO,PSC-UPTEMPO,Araon,North
2013-08-31T04:59:31Z,1377925171,2013,5,0,243.208,-999.0,75.608,-160.5926,1012.9,-1.48,-999.0,yes,yes,no,300234011244950,UPTEMPO,PSC-UPTEMPO,Araon,North
2013-08-31T06:00:00Z,1377928800,2013,6,0,243.25,-999.0,75.601,-160.6262,1012.8,-1.48,-999.0,yes,yes,no,300234011244950,UPTEMPO,PSC-UPTEMPO,Araon,North
2013-08-31T07:00:28Z,1377932429,2013,7,0,243.292,-999.0,75.5954,-160.665,1012.9,-1.48,-999.0,yes,yes,no,300234011244950,UPTEMPO,PSC-UPTEMPO,Araon,North
2013-08-31T07:59:31Z,1377935971,2013,8,0,243.333,-999.0,75.5918,-160.7068,1012.8,-1.48,-999.0,yes,yes,no,300234011244950,UPTEMPO,PSC-UPTEMPO,Araon,North
2013-08-31T09:00:00Z,1377939600,2013,9,0,243.375,-999.0,75.59,-160.7486,1012.8,-1.52,-999.0,yes,yes,no,300234011244950,UPTEMPO,PSC-UPTEMPO,Araon,North
2013-08-31T10:00:28Z,1377943229,2013,10,0,243.417,-999.0,75.59,-160.7878,1012.9,-1.52,-999.0,yes,yes,no,300234011244950,UPTEMPO,PSC-UPTEMPO,Araon,North
2013-08-31T10:59:31Z,1377946771,2013,11,0,243.458,-999.0,75.5912,-160.8236,1013.1,-1.52,-999.0,yes,yes,no,300234011244950,UPTEMPO,PSC-UPTEMPO,Araon,North
2013-08-31T12:00:00Z,1377950400,2013,12,0,243.5,-999.0,75.5928,-160.8544,1013.4,-1.54,-999.0,yes,yes,no,300234011244950,UPTEMPO,PSC-UPTEMPO,Araon,North
2013-08-31T13:00:28Z,1377954029,2013,13,0,243.542,-999.0,75.5936,-160.8812,1013.5,-1.54,-999.0,yes,yes,no,300234011244950,UPTEMPO,PSC-UPTEMPO,Araon,North
2013-08-31T13:59:31Z,1377957571,2013,14,0,243.583,-999.0,75.5942,-160.9052,1014.0,-1.54,-999.0,yes,yes,no,300234011244950,UPTEMPO,PSC-UPTEMPO,Araon,North
2013-08-31T15:00:00Z,1377961200,2013,15,0,243.625,-999.0,75.594,-160.93,1014.0,-1.56,-999.0,yes,yes,no,300234011244950,UPTEMPO,PSC-UPTEMPO,Araon,North
2013-08-31T16:00:28Z,1377964829,2013,16,0,243.667,-999.0,75.5926,-160.954,1014.2,-1.52,-999.0,yes,yes,no,300234011244950,UPTEMPO,PSC-UPTEMPO,Araon,North
2013-08-31T16:59:31Z,1377968371,2013,17,0,243.708,-999.0,75.59,-160.9784,1014.4,-1.56,-999.0,yes,yes,no,300234011244950,UPTEMPO,PSC-UPTEMPO,Araon,North
2013-08-31T18:00:00Z,1377972000,2013,18,0,243.75,-999.0,75.5866,-161.0076,1014.8,-1.56,-999.0,yes,yes,no,300234011244950,UPTEMPO,PSC-UPTEMPO,Araon,North
2013-08-31T19:00:28Z,1377975629,2013,19,0,243.792,-999.0,75.5842,-161.045,1015.1,-1.56,-999.0,yes,yes,no,300234011244950,UPTEMPO,PSC-UPTEMPO,Araon,North
2013-08-31T19:59:31Z,1377979171,2013,20,0,243.833,-999.0,75.5834,-161.0866,1015.6,-1.56,-999.0,yes,yes,no,300234011244950,UPTEMPO,PSC-UPTEMPO,Araon,North
2013-08-31T21:00:00Z,1377982800,2013,21,0,243.875,-999.0,75.585,-161.1314,1015.9,-1.54,-999.0,yes,yes,no,300234011244950,UPTEMPO,PSC-UPTEMPO,Araon,North
2013-08-31T22:00:28Z,1377986429,2013,22,0,243.917,-999.0,75.591,-161.1786,1016.3,-1.52,-999.0,yes,yes,no,300234011244950,UPTEMPO,PSC-UPTEMPO,Araon,North
2013-08-31T22:59:31Z,1377989971,2013,23,0,243.958,-999.0,75.6004,-161.218,1016.9,-1.52,-999.0,yes,yes,no,300234011244950,UPTEMPO,PSC-UPTEMPO,Araon,North
2013-09-01T00:00:00Z,1377993600,2013,0,0,244.0,-999.0,75.6098,-161.2424,1017.4,-1.54,-999.0,yes,yes,no,300234011244950,UPTEMPO,PSC-UPTEMPO,Araon,North
2013-09-01T01:00:28Z,1377997229,2013,1,0,244.042,-999.0,75.6182,-161.2538,1017.8,-1.52,-999.0,yes,yes,no,300234011244950,UPTEMPO,PSC-UPTEMPO,Araon,North
2013-09-01T01:59:31Z,1378000771,2013,2,0,244.083,-999.0,75.6246,-161.257,1017.9,-1.52,-999.0,yes,yes,no,300234011244950,UPTEMPO,PSC-UPTEMPO,Araon,North
2013-09-01T03:00:00Z,1378004400,2013,3,0,244.125,-999.0,75.6282,-161.258,1018.3,-1.54,-999.0,yes,yes,no,300234011244950,UPTEMPO,PSC-UPTEMPO,Araon,North